Wind_Speed
5 4 4 3 3 2 2 2 2 3 4 4 5 5 5 5 6 6 5 5 5 5 6 6 5 6 6 5 6 6 6 5 5 5 5 5 6 6 6 4 4 5 5
5 4 3 3 2 2 1 2 2 2 3 3 4 5 5 5 5 5 5 5 5 5 5 5 5 5 5 5 5 5 5 5 5 5 5 5 6 6 5 5 4 5 6
5 4 3 2 2 1 0 1 1 2 2 2 3 4 4 4 4 4 4 4 4 4 4 4 4 4 4 5 5 5 5 5 5 6 6 5 6 5 5 4 5 5 5
5 4 4 3 2 1 1 1 1 1 2 2 2 3 3 3 3 3 4 4 4 4 4 4 4 5 5 5 4 5 5 5 5 5 5 6 5 5 4 4 4 4 4
5 5 4 3 3 1 1 1 1 2 2 2 2 2 2 3 3 3 3 3 4 4 4 4 4 5 5 4 4 4 4 4 5 4 4 5 5 4 4 4 4 3 4
6 5 4 3 2 2 1 1 1 1 2 2 2 1 2 2 2 3 3 3 4 4 4 4 4 5 5 4 4 4 4 4 5 5 4 5 4 4 4 4 3 3 3
6 6 4 3 2 2 1 1 1 2 2 2 1 1 2 2 2 2 3 3 4 4 4 4 4 4 4 4 4 4 3 4 4 4 3 4 4 4 3 3 3 2 3
8 7 6 4 2 2 2 2 2 2 2 2 1 1 1 1 1 2 2 2 3 3 4 4 4 4 5 4 4 4 3 4 4 3 3 4 4 4 3 3 2 2 2
9 8 7 6 3 3 2 2 3 3 2 2 2 1 1 0 1 1 2 2 2 3 3 4 4 4 4 4 4 3 3 3 3 2 3 3 3 3 3 3 2 2 2
10 9 7 6 4 3 3 3 3 3 3 3 2 1 1 0 1 1 2 2 2 3 3 3 4 4 4 4 3 3 3 2 2 1 2 2 2 2 2 2 2 2 1
11 10 9 7 5 4 3 3 3 3 3 3 3 2 2 1 1 2 2 2 2 3 3 3 3 3 3 3 3 3 3 2 1 1 2 2 2 2 2 2 2 2 1
12 11 11 9 8 5 4 2 2 3 3 3 3 3 2 2 1 2 2 3 3 3 3 3 3 3 3 2 2 2 2 2 1 1 2 1 2 1 1 1 1 1 1
13 12 11 10 9 7 5 3 2 2 3 4 3 3 3 2 2 2 2 2 3 3 3 3 3 2 2 2 1 1 1 1 1 1 1 1 1 1 1 0 1 1 1
14 13 12 11 10 8 6 4 3 2 3 4 3 3 3 3 1 1 2 2 2 2 2 2 2 2 2 2 1 0 0 1 1 1 0 0 0 0 0 0 0 1 1
14 14 13 11 10 9 6 5 4 3 2 3 3 3 3 3 2 2 2 3 3 2 2 2 2 2 2 1 1 0 0 1 0 0 1 1 1 1 1 1 1 1 1
15 14 13 12 11 10 8 6 4 3 3 3 4 4 4 4 3 2 2 3 3 2 2 2 1 2 2 1 1 1 1 0 0 1 1 1 1 1 1 1 2 2 2
15 15 14 12 11 10 8 6 5 3 2 2 3 4 5 5 5 4 4 3 3 3 2 2 2 2 2 2 2 1 1 1 1 1 1 1 1 1 2 2 2 2 2
16 16 14 13 11 10 8 7 5 4 3 2 3 3 5 5 5 5 5 4 4 3 3 3 2 2 2 2 1 1 1 2 2 1 1 1 1 2 2 3 3 3 3
17 16 14 13 12 10 9 8 5 4 4 4 3 4 4 5 6 5 5 5 4 4 3 2 2 2 2 2 2 2 2 2 1 1 1 1 2 2 3 3 4 3 4
17 16 15 13 13 12 10 8 6 5 5 4 3 3 4 5 6 6 6 6 5 4 4 3 3 3 3 2 2 2 2 2 2 2 2 2 2 3 3 4 4 4 4
17 16 14 13 14 13 11 10 8 6 6 5 4 4 4 5 6 7 6 7 6 5 4 4 5 4 4 4 3 3 3 3 3 3 4 4 4 4 4 4 4 5 5
18 17 15 14 13 12 12 11 9 8 6 5 5 4 4 5 5 6 7 7 6 6 6 5 6 6 5 5 4 4 4 4 4 4 5 5 5 5 5 5 6 6 6
18 17 15 14 13 12 11 11 10 8 7 6 6 5 6 6 6 6 6 6 6 6 6 7 7 7 6 6 6 6 5 5 5 5 6 6 6 6 7 7 7 7 7
18 17 15 14 13 12 11 11 10 9 8 7 6 7 7 7 7 7 7 7 7 7 7 7 7 7 7 7 7 7 7 7 7 7 8 7 8 9 9 8 8 8 9
17 16 15 15 13 12 12 11 10 9 9 8 7 7 7 7 7 7 7 7 8 8 8 8 8 9 9 9 8 9 9 8 8 9 9 9 10 10 10 10 10 10 11
17 15 15 15 14 13 12 11 10 9 8 8 7 6 7 7 7 7 8 8 8 9 9 9 10 10 11 11 11 10 11 11 11 11 11 11 11 12 12 12 12 12 13
Wind_Direction
74 77 73 75 80 93 125 155 156 157 146 144 142 139 136 130 123 118 117 116 112 107 99 94 90 86 81 82 81 81 80 76 73 75 77 79 76 75 79 77 84 85 89
61 64 63 68 70 83 123 148 159 156 155 152 152 146 140 133 130 123 123 123 119 111 101 98 92 87 84 86 85 84 83 79 78 77 78 80 81 81 77 70 74 84 86
51 55 56 59 64 67 105 175 185 171 170 162 155 149 144 135 132 129 128 126 120 112 104 101 100 97 93 90 90 86 86 88 83 80 77 73 74 77 82 80 70 82 83
48 47 42 38 33 8 317 259 227 200 182 176 163 150 144 140 140 135 123 118 118 114 108 106 108 107 104 101 96 89 89 89 84 80 75 71 71 77 81 80 68 69 79
45 36 31 23 14 352 306 282 239 215 195 178 166 158 153 150 151 144 126 120 118 115 110 105 110 107 104 105 101 95 88 91 86 80 79 74 69 80 85 77 65 74 80
41 31 25 14 360 349 317 290 244 207 183 173 168 157 154 155 146 136 127 122 118 112 110 104 101 105 105 103 104 102 96 88 79 80 84 76 71 84 89 77 69 76 78
41 34 26 15 356 331 312 286 245 210 193 181 174 164 157 152 138 127 119 116 117 112 109 107 103 108 112 108 107 103 96 89 82 81 81 77 73 79 82 79 77 84 84
40 35 28 15 2 342 304 273 238 212 213 204 202 196 180 157 142 128 117 115 117 118 113 112 113 112 113 109 107 101 100 94 82 74 74 74 77 76 70 83 77 79 82
34 31 25 22 11 345 308 272 243 228 229 236 239 242 251 207 142 132 129 127 125 123 120 118 120 118 116 108 106 106 105 102 91 77 68 73 78 79 73 68 68 67 80
28 25 18 14 358 336 310 274 249 242 244 248 244 250 264 224 172 151 140 137 131 130 129 127 126 121 117 114 107 102 97 103 91 82 71 68 81 80 74 64 57 62 79
25 23 16 10 3 350 332 286 251 252 252 251 245 249 253 228 191 170 152 146 141 139 134 133 132 126 118 114 110 103 91 92 82 63 73 76 85 80 72 69 56 49 66
25 20 14 11 6 357 336 311 264 251 243 249 249 251 253 235 213 172 160 152 147 144 142 141 142 138 128 121 115 102 87 72 80 70 70 77 86 94 89 78 55 38 38
24 21 17 12 8 1 352 326 313 285 243 241 246 252 247 245 224 160 166 166 162 156 151 147 146 142 136 127 119 114 83 62 75 55 56 70 83 102 109 80 45 20 354
22 20 17 14 10 5 353 340 321 308 256 240 246 246 248 257 225 180 165 167 173 169 163 158 160 157 155 167 154 115 47 77 87 57 0 88 105 133 253 269 277 315 320
18 15 13 10 8 6 356 338 321 318 283 252 252 249 248 270 254 214 194 190 195 197 184 179 177 185 190 200 224 253 333 90 68 354 291 245 251 239 248 270 281 286 292
14 10 6 4 4 1 354 342 328 320 295 269 255 256 250 251 249 233 226 204 204 214 228 222 211 220 226 237 264 303 330 353 352 322 308 276 248 246 255 277 289 286 287
10 7 4 1 360 357 353 348 338 335 314 289 274 266 246 240 244 240 240 232 232 244 255 256 239 240 244 255 278 294 287 303 329 333 329 294 270 261 265 273 288 285 280
5 4 2 360 357 353 348 344 339 329 320 300 280 269 253 241 238 237 238 236 239 247 256 261 242 237 242 249 263 266 276 302 320 336 339 316 297 282 276 277 279 281 276
1 360 358 358 358 354 349 345 340 330 315 300 287 268 257 249 240 242 243 240 242 252 257 255 245 242 239 236 245 258 276 284 307 321 330 323 315 301 291 285 286 284 281
357 356 355 356 357 353 349 346 344 337 327 316 308 275 264 259 249 249 251 248 249 256 254 251 248 252 249 244 250 257 267 280 294 302 313 313 311 308 308 302 297 288 287
356 355 355 354 353 351 350 351 348 335 321 320 313 298 276 269 258 254 255 255 252 248 249 249 249 255 261 258 262 269 285 289 284 293 296 301 299 297 296 294 296 291 288
353 353 352 351 349 349 350 349 349 345 334 323 313 299 285 277 268 258 253 253 250 251 251 252 252 254 260 263 268 273 277 278 280 286 292 294 295 299 297 290 286 288 288
351 351 348 347 346 345 345 344 340 339 333 322 305 295 281 271 267 259 253 247 250 252 256 257 258 257 262 265 267 268 273 275 284 286 288 291 294 295 292 296 292 291 290
348 348 348 346 345 343 339 337 337 334 329 324 316 295 286 275 270 266 253 252 254 257 257 258 260 259 259 265 268 272 277 282 285 289 291 286 285 287 290 293 295 295 291
346 346 347 346 343 340 339 337 337 336 331 330 321 301 294 283 271 262 256 256 256 256 257 259 261 260 260 265 269 273 276 279 282 285 288 286 285 289 290 292 291 290 288
345 344 343 346 346 342 340 340 340 338 335 334 332 319 309 293 278 265 260 265 267 262 261 264 265 263 263 264 268 274 279 283 283 282 283 284 284 286 287 289 288 289 286
Height
5895 5895 5895 5896 5896 5896 5896 5896 5896 5895 5895 5895 5895 5895 5895 5895 5895 5895 5895 5895 5895 5896 5896 5896 5896 5896 5897 5897 5897 5898 5898 5898 5898 5898 5899 5899 5899 5899 5900 5900 5900 5900 5900
5897 5896 5897 5897 5897 5897 5897 5897 5897 5896 5896 5896 5896 5896 5896 5896 5896 5896 5896 5896 5896 5897 5897 5897 5897 5897 5898 5898 5898 5899 5899 5899 5899 5899 5900 5900 5900 5900 5901 5901 5901 5901 5902
5897 5897 5898 5898 5898 5898 5898 5898 5898 5897 5897 5897 5897 5897 5897 5897 5897 5897 5897 5897 5897 5897 5898 5898 5898 5898 5899 5899 5899 5899 5899 5900 5900 5900 5901 5901 5901 5901 5902 5902 5902 5903 5903
5898 5898 5898 5898 5898 5899 5899 5898 5898 5898 5898 5898 5898 5898 5898 5898 5898 5898 5898 5898 5898 5898 5898 5899 5899 5899 5899 5900 5900 5900 5900 5900 5901 5901 5902 5902 5902 5902 5903 5903 5903 5904 5904
5900 5899 5899 5899 5899 5899 5899 5899 5899 5899 5899 5899 5899 5898 5898 5898 5898 5898 5898 5898 5899 5899 5899 5899 5900 5900 5900 5901 5901 5901 5901 5902 5902 5902 5902 5903 5903 5903 5903 5904 5904 5904 5905
5901 5900 5900 5900 5900 5900 5900 5900 5900 5900 5899 5899 5899 5899 5899 5899 5899 5899 5899 5899 5899 5900 5900 5900 5901 5901 5901 5901 5902 5902 5902 5903 5903 5902 5903 5904 5904 5904 5904 5905 5905 5905 5906
5902 5901 5900 5900 5900 5900 5900 5900 5900 5900 5900 5900 5900 5900 5900 5900 5900 5900 5900 5900 5900 5901 5901 5901 5901 5902 5902 5902 5903 5903 5903 5904 5904 5904 5904 5904 5904 5905 5905 5905 5906 5906 5906
5902 5902 5901 5901 5900 5900 5900 5900 5900 5900 5900 5901 5901 5901 5901 5900 5900 5901 5901 5901 5901 5901 5902 5902 5902 5902 5903 5903 5903 5904 5904 5905 5905 5905 5905 5905 5905 5906 5906 5906 5906 5907 5907
5904 5903 5902 5901 5901 5901 5900 5900 5901 5901 5901 5901 5901 5901 5901 5901 5901 5901 5902 5902 5902 5902 5902 5903 5903 5903 5904 5904 5904 5904 5905 5905 5905 5906 5906 5906 5906 5906 5906 5907 5907 5907 5908
5905 5904 5903 5902 5901 5901 5901 5900 5901 5901 5901 5901 5902 5902 5902 5902 5902 5902 5902 5903 5903 5903 5903 5904 5904 5904 5905 5905 5905 5905 5905 5906 5906 5906 5906 5906 5906 5907 5907 5907 5908 5908 5908
5906 5905 5904 5902 5901 5901 5901 5900 5901 5901 5901 5902 5902 5902 5902 5902 5903 5903 5903 5903 5903 5904 5904 5904 5905 5905 5905 5905 5905 5906 5906 5906 5907 5907 5907 5907 5907 5907 5908 5908 5908 5909 5909
5907 5906 5904 5903 5902 5902 5901 5901 5901 5901 5902 5902 5902 5902 5902 5903 5903 5903 5903 5903 5904 5904 5904 5905 5905 5905 5905 5906 5906 5906 5906 5906 5907 5907 5907 5907 5908 5908 5908 5908 5909 5909 5909
5908 5907 5905 5904 5903 5902 5901 5901 5901 5901 5902 5902 5902 5902 5903 5903 5903 5903 5904 5904 5904 5905 5905 5905 5905 5906 5906 5906 5907 5907 5907 5907 5907 5907 5907 5908 5908 5908 5908 5909 5909 5909 5909
5909 5908 5906 5905 5903 5902 5902 5901 5901 5901 5901 5902 5902 5902 5903 5903 5903 5904 5904 5905 5905 5905 5906 5906 5906 5906 5907 5907 5907 5907 5907 5907 5907 5908 5908 5908 5908 5908 5909 5909 5909 5909 5909
5911 5909 5907 5906 5904 5903 5902 5902 5901 5901 5901 5901 5901 5902 5902 5903 5904 5904 5904 5905 5905 5906 5906 5906 5907 5907 5907 5907 5907 5907 5907 5907 5908 5907 5907 5908 5908 5908 5909 5909 5909 5909 5909
5912 5910 5908 5906 5905 5903 5902 5902 5901 5901 5901 5901 5901 5901 5902 5903 5903 5904 5905 5905 5905 5906 5906 5907 5907 5907 5907 5907 5907 5907 5907 5908 5908 5908 5907 5908 5908 5908 5908 5909 5909 5909 5909
5913 5911 5909 5907 5905 5904 5903 5902 5901 5901 5901 5901 5901 5902 5902 5903 5903 5904 5905 5905 5906 5906 5906 5907 5907 5907 5907 5908 5908 5908 5908 5908 5908 5908 5907 5907 5908 5908 5908 5908 5908 5908 5908
5914 5911 5909 5907 5906 5904 5903 5902 5901 5901 5901 5901 5901 5902 5902 5902 5903 5903 5904 5905 5905 5906 5906 5906 5907 5907 5907 5907 5908 5908 5908 5908 5908 5908 5907 5907 5907 5908 5908 5908 5908 5908 5908
5914 5912 5910 5908 5906 5904 5903 5902 5901 5901 5901 5901 5901 5901 5901 5901 5902 5903 5904 5904 5905 5905 5906 5906 5907 5907 5907 5907 5907 5908 5907 5907 5907 5907 5907 5907 5907 5907 5907 5907 5907 5907 5907
5915 5912 5910 5908 5907 5905 5903 5902 5901 5901 5900 5900 5901 5900 5900 5901 5901 5902 5903 5904 5904 5905 5905 5906 5906 5907 5907 5907 5907 5907 5907 5906 5907 5907 5907 5907 5907 5907 5906 5906 5906 5906 5906
5915 5913 5911 5909 5907 5905 5904 5902 5901 5901 5900 5900 5900 5900 5900 5900 5901 5901 5902 5903 5903 5904 5905 5905 5906 5906 5907 5907 5907 5907 5907 5906 5907 5907 5907 5906 5906 5906 5906 5906 5905 5905 5905
5915 5913 5911 5909 5907 5906 5904 5903 5901 5900 5900 5899 5899 5899 5899 5899 5900 5901 5901 5902 5902 5903 5904 5904 5905 5905 5906 5906 5906 5906 5906 5907 5906 5906 5906 5905 5905 5904 5904 5904 5904 5904 5904
5915 5913 5911 5909 5907 5906 5904 5903 5901 5900 5899 5899 5899 5899 5899 5899 5899 5899 5900 5901 5901 5902 5902 5903 5903 5904 5905 5905 5905 5906 5905 5905 5905 5905 5905 5904 5904 5904 5903 5903 5903 5902 5902
5915 5913 5911 5909 5907 5905 5904 5902 5901 5900 5898 5898 5897 5897 5897 5897 5898 5898 5899 5900 5900 5901 5901 5901 5902 5903 5903 5904 5904 5904 5904 5903 5904 5903 5903 5902 5902 5902 5902 5901 5901 5901 5900
5915 5913 5911 5909 5907 5905 5903 5902 5900 5899 5898 5897 5896 5895 5896 5896 5896 5897 5898 5898 5898 5899 5899 5900 5900 5901 5901 5902 5902 5902 5902 5902 5902 5902 5901 5901 5900 5900 5899 5899 5899 5898 5898
5915 5913 5911 5909 5907 5904 5903 5901 5900 5898 5897 5896 5895 5895 5895 5894 5895 5895 5896 5897 5897 5897 5897 5898 5898 5899 5899 5900 5900 5900 5900 5900 5899 5899 5899 5898 5898 5897 5897 5896 5896 5895 5895